Weather History for Adak, AK

Change the Weather History Date:

Sunday, February 17, 2013

  Actual Average Record
Temperature  
Mean Temperature 37 °F -  
Max Temperature 41 °F 37 °F 48 °F (2009)
Min Temperature 33 °F 27 °F 15 °F (1971)
Degree Days  
Heating Degree Days 28    
Moisture  
Dew Point 36 °F    
Average Humidity 93    
Maximum Humidity 100    
Minimum Humidity 80    
Precipitation  
Precipitation 0.03 in - - ()
Sea Level Pressure  
Sea Level Pressure 29.47 in    
Wind  
Wind Speed 16 mph (ESE)    
Max Wind Speed 37 mph    
Max Gust Speed 45 mph    
Visibility 5 miles    
Events      
Averages and records for this station are not official NWS values.
T = Trace of Precipitation, MM = Missing Value Source: NWS Daily Summary

Daily Weather History Graph

Daily Weather History Graph

Search for Another Location

Airport:

Trip Planner

Search our weather history database for the weather conditions in past years. The results will help you decide how hot, cold, wet, or windy it might be!

Date:

Astronomy

Feb. 17, 2013 Rise Set
Actual Time 8:56 AM HAST 7:05 PM HAST
Civil Twilight 8:21 AM HAST 7:40 PM HAST
Nautical Twilight 7:42 AM HAST 8:19 PM HAST
Astronomical Twilight 7:03 AM HAST 8:58 PM HAST
Moon 12:00 PM HAST (2/17) 3:11 AM HAST (2/17)
Length of Visible Light 11h 18m
Length of Day
10h 09m
Waxing Crescent, 51% of the Moon is Illuminated
Feb 17
Waxing Crescent
Feb 25
Full
Mar 4
Last Quarter
Mar 11
New
Mar 19
First Quarter

Hourly Weather History & Observations

Time (HAST) Temp. Windchill Dew Point Humidity Pressure Visibility Wind Dir Wind Speed Gust Speed Precip Events Conditions
12:16 AM 35.6 °F 24.5 °F 32.0 °F 87% 29.89 in 9.0 mi ESE 20.7 mph 25.3 mph N/A   Overcast
12:36 AM 35.6 °F 23.7 °F 32.0 °F 87% 29.88 in 8.0 mi SE 24.2 mph 27.6 mph N/A   Overcast
12:56 AM 35.6 °F 24.2 °F 32.0 °F 87% 29.88 in 9.0 mi ESE 21.9 mph 26.5 mph 0.01 in   Overcast
1:16 AM 35.6 °F 23.2 °F 33.8 °F 93% 29.86 in 7.0 mi ESE 26.5 mph 32.2 mph N/A   Overcast
1:36 AM 35.6 °F 23.7 °F 32.0 °F 87% 29.85 in 5.0 mi ESE 24.2 mph 31.1 mph 0.02 in   Overcast
1:56 AM 35.6 °F 24.0 °F 32.0 °F 87% 29.84 in 7.0 mi SE 23.0 mph 32.2 mph 0.02 in   Overcast
2:16 AM 35.6 °F 23.2 °F 32.0 °F 87% 29.84 in 5.0 mi SE 26.5 mph - N/A   Overcast
2:36 AM 35.6 °F 23.7 °F 32.0 °F 87% 29.83 in 5.0 mi SE 24.2 mph 29.9 mph 0.01 in   Overcast
3:16 AM 35.6 °F 24.2 °F 32.0 °F 87% 29.82 in 6.0 mi ESE 21.9 mph - N/A   Overcast
3:36 AM 35.6 °F 25.2 °F 32.0 °F 87% 29.80 in 4.0 mi ESE 18.4 mph 23.0 mph N/A   Overcast
3:56 AM 35.6 °F 23.7 °F 33.8 °F 93% 29.79 in 4.0 mi ESE 24.2 mph 32.2 mph N/A   Overcast
4:16 AM 37.4 °F 25.9 °F 33.8 °F 87% 29.79 in 4.0 mi ESE 25.3 mph 32.2 mph N/A   Overcast
4:36 AM 37.4 °F 25.9 °F 33.8 °F 87% 29.77 in 5.0 mi ESE 25.3 mph 32.2 mph N/A   Overcast
4:56 AM 37.4 °F 28.2 °F 35.6 °F 93% 29.76 in 5.0 mi SE 16.1 mph 28.8 mph N/A   Overcast
5:16 AM 39.2 °F 29.6 °F 35.6 °F 87% 29.75 in 5.0 mi SSE 19.6 mph 27.6 mph N/A   Overcast
5:36 AM 39.2 °F 30.8 °F 35.6 °F 87% 29.75 in 7.0 mi SSE 15.0 mph - N/A   Overcast
5:56 AM 39.2 °F 30.8 °F 35.6 °F 87% 29.76 in 7.0 mi SSE 15.0 mph 19.6 mph N/A   Overcast
6:16 AM 39.2 °F 35.0 °F 37.4 °F 93% 29.75 in 9.0 mi SSW 5.8 mph - N/A   Overcast
6:36 AM 39.2 °F - 35.6 °F 87% 29.74 in 7.0 mi Calm Calm - 0.01 in   Overcast
6:56 AM 39.2 °F 31.2 °F 37.4 °F 93% 29.74 in 7.0 mi South 13.8 mph - 0.01 in   Overcast
7:16 AM 39.2 °F 31.2 °F 37.4 °F 93% 29.74 in 4.0 mi South 13.8 mph - N/A   Overcast
7:36 AM 39.2 °F 34.2 °F 37.4 °F 93% 29.73 in 6.0 mi South 6.9 mph - N/A   Mostly Cloudy
7:56 AM 37.4 °F - 35.6 °F 93% 29.74 in 7.0 mi Calm Calm - N/A   Mostly Cloudy
8:16 AM 37.4 °F 32.8 °F 35.6 °F 93% 29.73 in 7.0 mi SE 5.8 mph - N/A   Overcast
8:36 AM 37.4 °F 31.4 °F 35.6 °F 93% 29.74 in 3.0 mi South 8.1 mph - N/A   Overcast
8:56 AM 37.4 °F 31.4 °F 35.6 °F 93% 29.72 in 1.5 mi South 8.1 mph - N/A   Overcast
9:16 AM 35.6 °F 29.2 °F 35.6 °F 100% 29.75 in 1.5 mi WSW 8.1 mph - N/A   Overcast
9:36 AM 35.6 °F - 33.8 °F 93% 29.72 in 4.0 mi Calm Calm - N/A   Overcast
9:56 AM 35.6 °F 32.8 °F 33.8 °F 93% 29.72 in 2.0 mi NE 3.5 mph - N/A   Overcast
10:16 AM 35.6 °F 30.7 °F 35.6 °F 100% 29.72 in 3.0 mi East 5.8 mph - N/A   Mostly Cloudy
10:36 AM 37.4 °F 34.9 °F 37.4 °F 100% 29.72 in 5.0 mi East 3.5 mph - N/A   Mostly Cloudy
10:56 AM 37.4 °F 34.9 °F 35.6 °F 93% 29.71 in 2.5 mi ENE 3.5 mph - N/A   Mostly Cloudy
11:16 AM 37.4 °F 33.8 °F 35.6 °F 93% 29.70 in 3.0 mi NNE 4.6 mph - N/A   Overcast
11:36 AM 37.4 °F 32.1 °F 35.6 °F 93% 29.67 in 4.0 mi North 6.9 mph - N/A   Overcast
11:56 AM 37.4 °F 32.8 °F 35.6 °F 93% 29.66 in 1.8 mi NNE 5.8 mph - N/A   Overcast
12:16 PM 37.4 °F 32.8 °F 35.6 °F 93% 29.64 in 0.5 mi North 5.8 mph - N/A   Overcast
12:36 PM 37.4 °F 31.4 °F 35.6 °F 93% 29.62 in 5.0 mi North 8.1 mph - N/A   Overcast
12:56 PM 37.4 °F 29.8 °F 37.4 °F 100% 29.61 in 7.0 mi NE 11.5 mph - N/A   Overcast
1:16 PM 37.4 °F 30.8 °F 35.6 °F 93% 29.59 in 5.0 mi North 9.2 mph - N/A   Overcast
1:36 PM 37.4 °F 31.4 °F 35.6 °F 93% 29.57 in 1.2 mi NE 8.1 mph - N/A   Overcast
1:56 PM 39.2 °F 31.6 °F 37.4 °F 93% 29.55 in 6.0 mi East 12.7 mph - N/A   Overcast
2:16 PM 37.4 °F 30.3 °F 37.4 °F 100% 29.52 in 5.0 mi ENE 10.4 mph - N/A   Overcast
2:36 PM 37.4 °F 30.3 °F 37.4 °F 100% 29.48 in 3.0 mi ENE 10.4 mph - N/A   Overcast
2:56 PM 37.4 °F 28.5 °F 37.4 °F 100% 29.46 in 4.0 mi ENE 15.0 mph - 0.02 in   Overcast
3:16 PM 37.4 °F 29.3 °F 37.4 °F 100% 29.43 in 5.0 mi ENE 12.7 mph - 0.01 in   Overcast
3:36 PM 37.4 °F 29.3 °F 37.4 °F 100% 29.40 in 5.0 mi NE 12.7 mph - 0.02 in   Overcast
3:56 PM 37.4 °F 28.9 °F 37.4 °F 100% 29.35 in 5.0 mi NE 13.8 mph - 0.03 in   Mostly Cloudy
4:16 PM 37.4 °F 29.8 °F 37.4 °F 100% 29.32 in 5.0 mi NNE 11.5 mph - N/A   Mostly Cloudy
4:36 PM 37.4 °F 28.5 °F 37.4 °F 100% 29.28 in 5.0 mi ENE 15.0 mph - 0.01 in   Overcast
4:56 PM 37.4 °F 28.2 °F 35.6 °F 93% 29.25 in 7.0 mi NNE 16.1 mph - 0.01 in   Overcast
5:16 PM 37.4 °F 27.8 °F 35.6 °F 93% 29.21 in 7.0 mi NE 17.3 mph - 0.01 in   Overcast
5:36 PM 37.4 °F 28.2 °F 35.6 °F 93% 29.16 in 5.0 mi NE 16.1 mph - 0.02 in   Overcast
5:56 PM 37.4 °F 27.2 °F 35.6 °F 93% 29.10 in 5.0 mi NE 19.6 mph 24.2 mph 0.03 in   Overcast
6:16 PM 37.4 °F 27.2 °F 35.6 °F 93% 29.07 in 5.0 mi NE 19.6 mph - 0.02 in   Overcast
6:36 PM 37.4 °F 28.5 °F 35.6 °F 93% 29.03 in 4.0 mi NE 15.0 mph - 0.06 in   Overcast
6:56 PM 39.2 °F 29.6 °F 37.4 °F 93% 29.00 in 4.0 mi ENE 19.6 mph 26.5 mph 0.10 in   Overcast
7:16 PM 39.2 °F 30.2 °F 37.4 °F 93% 28.97 in 3.0 mi East 17.3 mph 23.0 mph N/A   Overcast
7:36 PM 39.2 °F 29.8 °F 37.4 °F 93% 28.94 in 4.0 mi East 18.4 mph - 0.01 in   Overcast
7:56 PM 39.2 °F 30.8 °F 37.4 °F 93% 28.92 in 4.0 mi East 15.0 mph - 0.02 in   Overcast
8:16 PM 39.2 °F 35.9 °F 37.4 °F 93% 28.90 in 3.0 mi East 4.6 mph - N/A   Overcast
8:36 PM 39.2 °F 34.2 °F 37.4 °F 93% 28.87 in 3.0 mi South 6.9 mph - 0.01 in   Overcast
8:56 PM 39.2 °F 33.0 °F 39.2 °F 100% 28.85 in 5.0 mi SSE 9.2 mph - 0.01 in   Overcast
9:16 PM 41.0 °F 33.5 °F 39.2 °F 93% 28.83 in 5.0 mi South 13.8 mph 17.3 mph N/A   Overcast
9:36 PM 41.0 °F 33.1 °F 39.2 °F 93% 28.83 in 6.0 mi South 15.0 mph 21.9 mph N/A   Overcast
9:56 PM 41.0 °F 31.9 °F 39.2 °F 93% 28.82 in 4.0 mi South 19.6 mph 28.8 mph N/A   Overcast
10:16 PM 39.2 °F 30.2 °F 37.4 °F 93% 28.82 in 4.0 mi South 17.3 mph 25.3 mph 0.01 in   Overcast
10:36 PM 39.2 °F 28.0 °F 37.4 °F 93% 28.81 in 3.0 mi South 26.5 mph 32.2 mph 0.01 in   Overcast
10:56 PM 39.2 °F 29.3 °F 37.4 °F 93% 28.81 in 2.5 mi South 20.7 mph 32.2 mph 0.01 in   Overcast
11:56 PM 37.4 °F 23.8 °F 35.6 °F 93% 28.81 in 4.0 mi SSW 36.8 mph 44.9 mph 0.01 in   Overcast